Location: Whipple Observatory
(31.6750°N, 110.9510°W)
Time: 11:05:24
(UTC-07:00)

ISS - Pass Details

Date: 20 April 2026
Orbit: 414 x 424 km, 51.6° (Epoch: 12 May)

Event Time Altitude Azimuth Distance (km) Brightness Sun altitude
Exits shadow 04:12:47 28° 330° (NNW) 813 -2.4 -20.0°
Drops below altitude 10° 04:15:30 10° 23° (NNE) 1,495 -0.3 -19.5°
Sets 04:17:47 0° 35° (NE) 2,364 1.2 -19.1°
